User: anonymous   Login
Location: Unspecified
(0.0000°N, 0.0000°E)
Time: 01:32:23
(UTC+01:00)
Language:

Cosmos 773 Rocket - Orbit

View from above orbital plane
View from above orbital plane
View from above satellite
View from above satellite

Ground track
Ground track

The orbit data is extracted from the following two-line orbital elements,

1 08344U 75094B   17345.04587872 -.00000039  00000-0 -40865-5 0  9997
2 08344  74.0541 159.7330 0021559  14.0322 346.1427 14.39110175211120
Epoch (UTC): 11 December 2017 01:06:03
Eccentricity: 0.0021559
inclination: 74.0541°
perigee height: 746 km
apogee height: 777 km
right ascension of ascending node: 159.7330°
argument of perigee: 14.0322°
revolutions per day: 14.39110175
mean anomaly at epoch: 346.1427°
orbit number at epoch: 21112

The dashed part of the orbit path shows where the satellite is in the earth's shadow,  

DLR